Weather History for Coleman, TX

Change the Weather History Date:

Friday, September 6, 2013

  Actual Average (KABI) Record (KABI)
Temperature  
Mean Temperature 82 °F 79 °F  
Max Temperature 96 °F 90 °F 105 °F (1948)
Min Temperature 70 °F 68 °F 47 °F (2011)
Degree Days  
Heating Degree Days 0 0  
Month to date heating degree days 0  
Since 1 July heating degree days 0  
Cooling Degree Days 18 14  
Month to date cooling degree days 87  
Year to date cooling degree days 2032  
Growing Degree Days 32 (Base 50)    
Moisture  
Dew Point 61 °F    
Average Humidity 50    
Maximum Humidity 80    
Minimum Humidity 23    
Precipitation  
Precipitation 0.00 in 0.09 in 3.83 in (1932)
Month to date precipitation 0.48  
Year to date precipitation 17.44  
Sea Level Pressure  
Sea Level Pressure 30.09 in    
Wind  
Wind Speed 3 mph (SSE)    
Max Wind Speed 10 mph    
Max Gust Speed 17 mph    
Visibility 10 miles    
Events      
T = Trace of Precipitation, MM = Missing Value Source: NWS Daily Summary

Daily Weather History Graph

Daily Weather History Graph

Search for Another Location

Airport:

Trip Planner

Search our weather history database for the weather conditions in past years. The results will help you decide how hot, cold, wet, or windy it might be!

Date:

Astronomy

Sep. 06, 2013 Rise Set
Actual Time 7:16 AM CDT 7:54 PM CDT
Civil Twilight 6:51 AM CDT 8:19 PM CDT
Nautical Twilight 6:22 AM CDT 8:48 PM CDT
Astronomical Twilight 5:52 AM CDT 9:18 PM CDT
Moon 8:22 AM CDT (9/6) 8:29 PM CDT (9/6)
Length of Visible Light 13h 27m
Length of Day
12h 38m
New Moon, 2% of the Moon is Illuminated
Sep 6
New Moon
Sep 12
First Quarter
Sep 19
Full
Sep 26
Last Quarter
Oct 4
New

Hourly Weather History & Observations

Time (CDT) Temp. Heat Index Dew Point Humidity Pressure Visibility Wind Dir Wind Speed Gust Speed Precip Events Conditions
12:15 AM 77.4 °F - 66.0 °F 68% 30.11 in 10.0 mi SSW 3.5 mph - N/A   Clear
12:35 AM 77.9 °F - 65.3 °F 65% 30.11 in 10.0 mi Calm Calm - N/A   Clear
12:55 AM 75.9 °F - 63.5 °F 65% 30.11 in 10.0 mi Calm Calm - N/A   Clear
1:15 AM 76.8 °F - 63.9 °F 64% 30.11 in 10.0 mi ESE 3.5 mph - N/A   Clear
1:35 AM 77.7 °F - 63.5 °F 61% 30.11 in 10.0 mi SSE 4.6 mph - N/A   Clear
1:55 AM 77.0 °F - 63.5 °F 63% 30.11 in 10.0 mi South 5.8 mph - N/A   Clear
2:15 AM 77.4 °F - 63.7 °F 63% 30.11 in 10.0 mi SSW 5.8 mph - N/A   Clear
2:35 AM 77.4 °F - 63.7 °F 63% 30.10 in 10.0 mi South 4.6 mph - N/A   Clear
2:55 AM 76.6 °F - 64.0 °F 65% 30.10 in 10.0 mi South 6.9 mph - N/A   Clear
3:15 AM 76.5 °F - 64.2 °F 66% 30.10 in 10.0 mi SSW 6.9 mph - N/A   Clear
3:35 AM 75.7 °F - 64.4 °F 68% 30.10 in 10.0 mi South 4.6 mph - N/A   Clear
3:55 AM 75.2 °F - 64.0 °F 68% 30.10 in 10.0 mi SSW 3.5 mph - N/A   Clear
4:15 AM 74.7 °F - 64.4 °F 70% 30.10 in 10.0 mi SSW 5.8 mph - N/A   Clear
4:35 AM 74.3 °F - 64.6 °F 72% 30.10 in 10.0 mi SSW 3.5 mph - N/A   Clear
4:55 AM 73.4 °F - 64.8 °F 74% 30.10 in 10.0 mi Calm Calm - N/A   Clear
5:15 AM 73.2 °F - 64.6 °F 74% 30.10 in 10.0 mi Calm Calm - N/A   Clear
5:35 AM 73.4 °F - 64.8 °F 74% 30.11 in 10.0 mi Calm Calm - N/A   Clear
5:55 AM 72.5 °F - 64.9 °F 77% 30.11 in 10.0 mi Calm Calm - N/A   Clear
6:15 AM 72.5 °F - 64.8 °F 77% 30.11 in 10.0 mi Calm Calm - N/A   Clear
6:35 AM 71.8 °F - 64.8 °F 78% 30.11 in 10.0 mi Calm Calm - N/A   Clear
6:55 AM 70.7 °F - 64.4 °F 80% 30.12 in 10.0 mi Calm Calm - N/A   Clear
7:15 AM 70.2 °F - 63.9 °F 80% 30.12 in 10.0 mi Calm Calm - N/A   Clear
7:35 AM 70.7 °F - 64.2 °F 80% 30.12 in 10.0 mi Calm Calm - N/A   Clear
7:55 AM 71.1 °F - 64.4 °F 79% 30.13 in 10.0 mi Calm Calm - N/A   Clear
8:15 AM 73.4 °F - 65.5 °F 76% 30.14 in 10.0 mi Calm Calm - N/A   Clear
8:35 AM 75.9 °F - 66.0 °F 71% 30.14 in 10.0 mi Calm Calm - N/A   Clear
8:55 AM 78.1 °F - 66.2 °F 67% 30.14 in 10.0 mi Calm Calm - N/A   Clear
9:15 AM 80.6 °F 82.7 °F 66.2 °F 61% 30.14 in 10.0 mi West 4.6 mph - N/A   Clear
9:35 AM 82.6 °F 84.9 °F 66.6 °F 58% 30.15 in 10.0 mi West 6.9 mph - N/A   Clear
9:55 AM 83.7 °F 86.0 °F 66.2 °F 56% 30.15 in 10.0 mi West 4.6 mph - N/A   Clear
10:15 AM 84.7 °F 87.1 °F 66.4 °F 54% 30.16 in 10.0 mi WSW 4.6 mph - N/A   Clear
10:35 AM 86.2 °F 88.2 °F 65.3 °F 50% 30.16 in 10.0 mi SW 3.5 mph - N/A   Clear
10:55 AM 87.1 °F 88.3 °F 64.2 °F 46% 30.16 in 10.0 mi ESE 4.6 mph - N/A   Clear
11:15 AM 88.7 °F 89.1 °F 62.4 °F 41% 30.16 in 10.0 mi SSE 5.8 mph - N/A   Clear
11:35 AM 89.6 °F 89.8 °F 61.7 °F 39% 30.16 in 10.0 mi South 5.8 mph - N/A   Clear
11:55 AM 90.3 °F 90.5 °F 61.9 °F 38% 30.15 in 10.0 mi SSE 6.9 mph - N/A   Clear
12:15 PM 91.0 °F 90.9 °F 60.8 °F 36% 30.15 in 10.0 mi South 9.2 mph - N/A   Clear
12:35 PM 90.5 °F 90.1 °F 59.9 °F 36% 30.14 in 10.0 mi SSE 10.4 mph - N/A   Clear
12:55 PM 91.8 °F 91.5 °F 60.3 °F 35% 30.13 in 10.0 mi SE 8.1 mph - N/A   Clear
1:15 PM 92.3 °F 92.0 °F 59.9 °F 34% 30.12 in 10.0 mi SSE 5.8 mph - N/A   Scattered Clouds
1:35 PM 93.2 °F 92.9 °F 59.7 °F 33% 30.11 in 10.0 mi SSE 8.1 mph - N/A   Scattered Clouds
1:55 PM 94.5 °F 93.6 °F 59.0 °F 30% 30.11 in 10.0 mi SE 9.2 mph - N/A   Scattered Clouds
2:15 PM 93.2 °F 92.2 °F 58.3 °F 31% 30.10 in 10.0 mi South 10.4 mph - N/A   Scattered Clouds
2:35 PM 94.1 °F 93.1 °F 57.9 °F 30% 30.09 in 10.0 mi SE 5.8 mph - N/A   Mostly Cloudy
2:55 PM 92.7 °F 90.9 °F 56.3 °F 29% 30.08 in 10.0 mi SSE 9.2 mph 17.3 mph N/A   Scattered Clouds
3:15 PM 94.3 °F 92.4 °F 55.2 °F 27% 30.07 in 10.0 mi Calm Calm - N/A   Scattered Clouds
3:35 PM 95.5 °F 93.7 °F 55.9 °F 26% 30.06 in 10.0 mi East 9.2 mph - N/A   Scattered Clouds
3:55 PM 95.4 °F 93.8 °F 56.3 °F 27% 30.05 in 10.0 mi Calm Calm - N/A   Scattered Clouds
4:15 PM 95.2 °F 93.6 °F 56.1 °F 27% 30.04 in 10.0 mi ESE 4.6 mph - N/A   Scattered Clouds
4:35 PM 95.0 °F 93.0 °F 54.9 °F 26% 30.03 in 10.0 mi East 4.6 mph - N/A   Clear
4:55 PM 95.2 °F 93.0 °F 53.6 °F 25% 30.03 in 10.0 mi ESE 3.5 mph - N/A   Clear
5:15 PM 95.7 °F - 52.9 °F 23% 30.03 in 10.0 mi SE 4.6 mph - N/A   Clear
5:35 PM 94.8 °F 92.8 °F 55.2 °F 26% 30.02 in 10.0 mi SSE 5.8 mph 9.2 mph N/A   Clear
5:55 PM 95.7 °F 93.7 °F 55.0 °F 25% 30.01 in 10.0 mi South 9.2 mph - N/A   Scattered Clouds
6:15 PM 95.0 °F 92.7 °F 54.0 °F 25% 30.01 in 10.0 mi SSE 8.1 mph - N/A   Mostly Cloudy
6:35 PM 94.5 °F 92.1 °F 53.6 °F 25% 30.01 in 10.0 mi SE 8.1 mph - N/A   Scattered Clouds
6:55 PM 93.4 °F 91.0 °F 54.0 °F 26% 30.01 in 10.0 mi ESE 9.2 mph - N/A   Scattered Clouds
7:15 PM 92.8 °F 90.4 °F 53.6 °F 26% 30.01 in 10.0 mi SE 6.9 mph - N/A   Scattered Clouds
7:35 PM 91.8 °F 89.5 °F 54.5 °F 28% 30.01 in 10.0 mi SE 4.6 mph - N/A   Clear
7:55 PM 90.1 °F 88.1 °F 54.7 °F 30% 30.01 in 10.0 mi Calm Calm - N/A   Clear
8:15 PM 87.8 °F 86.1 °F 55.0 °F 33% 30.01 in 10.0 mi Calm Calm - N/A   Clear
8:35 PM 86.5 °F 85.1 °F 55.9 °F 35% 30.02 in 10.0 mi Calm Calm - N/A   Clear
8:55 PM 86.0 °F 84.7 °F 55.9 °F 36% 30.02 in 10.0 mi Calm Calm - N/A   Clear
9:15 PM 83.8 °F 83.4 °F 58.3 °F 42% 30.03 in 10.0 mi Calm Calm - N/A   Clear
9:35 PM 82.8 °F 82.8 °F 59.2 °F 45% 30.03 in 10.0 mi SSE 4.6 mph - N/A   Clear
9:55 PM 81.5 °F 81.5 °F 57.9 °F 44% 30.04 in 10.0 mi Calm Calm - N/A   Clear
10:15 PM 81.5 °F 81.8 °F 59.2 °F 47% 30.05 in 10.0 mi Calm Calm - N/A   Clear
10:35 PM 81.5 °F 81.7 °F 59.0 °F 46% 30.04 in 10.0 mi Calm Calm - N/A   Clear
10:55 PM 80.1 °F 80.8 °F 59.5 °F 49% 30.04 in 10.0 mi Calm Calm - N/A   Clear
11:15 PM 79.9 °F - 59.2 °F 49% 30.04 in 10.0 mi Calm Calm - N/A   Clear
11:35 PM 79.2 °F - 60.1 °F 52% 30.04 in 10.0 mi WSW 4.6 mph - N/A   Clear
11:55 PM 79.2 °F - 59.9 °F 52% 30.04 in 10.0 mi Calm Calm - N/A   Clear